Miscellaneous Local Product
Issued by NWS Hastings, NE

Home | Current Version | Previous Version | Text Only | Print | Product List | Glossary Off
Versions: 1 2 3 4 5 6 7 8 9 10 11 12 13 14 15 16 17 18 19 20 21 22 23 24 25 26 27 28 29 30 31 32 33 34 35 36 37 38 39 40 41 42 43 44 45 46 47 48 49 50

000
AXUS43 KGID 271402
MISGRI

GID CWA HOURLY WEATHER ROUNDUP
NATIONAL WEATHER SERVICE HASTINGS NE
900 AM CDT SAT AUG 27 2016

NOTE: "FAIR" INDICATES FEW OR NO CLOUDS BELOW 12,000 FEET WITH NO
SIGNIFICANT WEATHER AND/OR OBSTRUCTIONS TO VISIBILITY.

...SOUTH CENTRAL NEBRASKA...

CITY           SKY/WX    TMP DP  RH WIND       PRES   REMARKS
GRAND ISLAND   SUNNY     63  60  90 W8        30.06R
HASTINGS       SUNNY     65  60  84 NW8       30.06S
KEARNEY        SUNNY     61  57  88 NW6       30.06S
ORD            FOG       61  60  97 CALM      30.05R VSB 3/4
YORK           CLOUDY    64  64 100 CALM      30.05R FOG
AURORA         SUNNY     63  63 100 NW5       30.05S
LEXINGTON      SUNNY     59  56  91 CALM      30.08S
HOLDREGE       SUNNY     61  58  91 CALM      30.08R
HEBRON         SUNNY     67  66  97 N3        30.03S

...NEBRASKA PANHANDLE...

CITY           SKY/WX    TMP DP  RH WIND       PRES   REMARKS
CHADRON        SUNNY     58  54  86 S9        30.04R
ALLIANCE       CLOUDY    55  55 100 S9        30.08R FOG
SCOTTSBLUFF    FOG       54  53  97 SE5       30.08R VSB 1/4
SIDNEY         FOG       52  52 100 SW3       30.11R VSB 1/4

...WESTERN AND NORTH CENTRAL NEBRASKA...

CITY           SKY/WX    TMP DP  RH WIND       PRES   REMARKS
VALENTINE      SUNNY     59  55  87 S5        30.04R
AINSWORTH      PTSUNNY   58  58 100 W3        30.05R FOG
ONEILL         FOG       61  60  96 SW6       30.06S VSB 1
BROKEN BOW     FOG       58  58 100 CALM      30.06S VSB 1/2
IMPERIAL       CLOUDY    56  54  93 SW3       30.10R
NORTH PLATTE   PTSUNNY   56  54  93 NW3       30.07S
MCCOOK         CLOUDY    57  55  93 CALM      30.09R

...EASTERN NEBRASKA...

CITY           SKY/WX    TMP DP  RH WIND       PRES   REMARKS
NORFOLK        MOSUNNY   66  62  87 NW3       30.04R
SO SIOUX CITY  CLOUDY    66  63  90 CALM      30.03S FOG
TEKAMAH        CLOUDY    66  65  96 CALM      30.03S FOG
COLUMBUS       CLOUDY    66  57  72 N3        30.04F
ALBION         CLOUDY    64  62  94 CALM      30.06R FOG
OMAHA EPPLEY   CLOUDY    69  66  90 CALM      30.03R FOG
OFFUTT AFB     PTSUNNY   68  68 100 SW2       30.02R
MILLARD        PTSUNNY   70  68  94 W3        30.02S
LINCOLN        PTSUNNY   71  67  87 N6        30.04R
NEBRASKA CITY  CLOUDY    68  68 100 SW3       30.03F
BEATRICE       CLOUDY    68  67  96 CALM      30.03S
FALLS CITY     MOSUNNY   71  68  90 NW3       30.02S

...NORTHERN KANSAS...

CITY           SKY/WX    TMP DP  RH WIND       PRES   REMARKS
GOODLAND       FOG       58  57  97 SE9       30.08R VSB 1/4
HILL CITY      SUNNY     63  60  90 NE6       30.07S
NORTON         SUNNY     61  55  82 CALM      30.07S
SMITH CENTER   SUNNY     63  63 100 CALM      30.05S
BELOIT         MOSUNNY   63  61  94 CALM      30.04S
HAYS           SUNNY     64  55  72 E5        30.05S
RUSSELL        MOSUNNY   65  62  90 N7        30.04R
CONCORDIA      MOSUNNY   65  64  97 NW6       30.05R
SALINA         MOSUNNY   68  64  87 S7        30.04S
TOPEKA         SUNNY     71  68  90 SE7       30.02S



USA.gov is the U.S. government's official web portal to all federal, state and local government web resources and services.